STARLINK-32781, 62848

Orbit data source: Space-Track

STARLINK-32781, 62848 is a payload satellite owned by SpaceX/Seattle (US) in LEO that was launched on Mon, 27 Jan 2025 UTC via an FALCON 9 launch vehicle from the Air Force Eastern Test Range (AFETR). Payload-class satellites include a variety of spacecraft equipped with specific instruments for various scientific and technological missions. These include communications satellites like Starlink; space stations such as the ISS; scientific satellites like the Hubble; Earth observation satellites from companies like Planet Labs, Umbra, and HawkEye 360; GPS; miniature CubeSats for education and research; and military/defense satellites.

Loading next visibility...
Identifier
62848, 2025-019V
Orbit
LEO
Last TLE update
1 day ago
Origin
Manufacturer
SpaceX/Seattle
Mission
Operational Commercial Communications
Bus & Motor
STARLINK V2M, Unknown motor
Mass
730 kg wet, ~700 kg dry
Launch date (UTC)
2025-01-27 (3 months ago)
Launch vehicle
FALCON 9
Launch site
Air Force Eastern Test Range (AFETR)
Object type
Payload
Rocket body
Debris
Shape & HBR
Box + 2 Pan, 29 m
Radar Cross Section
33.884 m², Large (>1 m²)

Expand to show TLE details & history

TLE from 1 day ago
0 STARLINK-32781
1 62848U 25019V   25128.02717663 -.00001229  00000-0 -35160-4 0  9990
2 62848  43.0035  15.2152 0001716 268.4758  91.5897 15.27570028 15503
Epoch: 2025-05-08T00:39Z
Definitive object data (Epoch: 2025-05-08T00:39:08.06Z)
Latitude
-0.00004°
Longitude
139.328°
Altitude
482.888 km
Speed
7.626 km/s
True Right ascension
01h 00m 51s
True Declination
0° 00' 00"
Sunlit
Object was in daylight at TLE epoch
Visualization TLE readout
Latitude
-14.59832°
Longitude
-31.40379°
Altitude
485.575 km
Speed
7.624 km/s
Apparent Right ascension
12h 50m 07s
Apparent Declination
-72° 45' 02"
Sunlit
Object is in full shadow
Visualization observer readout
Local Sidereal Time
13:55:22
Azimuth
185.2° SSW
Elevation
-23.236°
Doppler factor
1
Orbital elements
Apogee altitude
486.201 km
Perigee altitude
483.846 km
Semi-major axis
6,863.161 km
Eccentricity
0.0001716
Inclination
43.0035°
RAAN
15.2152°
Arg. of periapsis
268.4758°
True anomaly
91.60936°
Mean anomaly
91.5897°
Eccentric anomaly
91.59953°
Mean motion
3.81731 °/min
BSTAR
-0.00003516
Orbital period
94.31 mins
Loading maneuver chart data...
Loading SW <> Apogee altitude chart data...
Loading historical data...
Loading historical data...
Loading historical data...
Loading historical data...
Loading historical data...
Loading historical data...
Loading historical data...

STARLINK-32781 Visibility forecast

Observer location: undefined°, undefined°

Span
Click to sort rows by Start time (UTC) header in descending order
Start Az.
Max El. time (UTC)
Max El. Az.
Max El.
End time (UTC)
End Az.
6 mins2025-05-09 19:13:38.523Z215.399° SW2025-05-09 19:16:38.523Z148.162° SSE31.148°2025-05-09 19:19:38.523Z84.924° E
5 mins2025-05-09 20:53:38.523Z271.097° WNW2025-05-09 20:55:38.523Z12.146° NNE42.267°2025-05-09 20:58:38.523Z69.653° E
5 mins2025-05-09 22:32:38.523Z296.609° NW2025-05-09 22:34:38.523Z5.357° NNE38.815°2025-05-09 22:37:38.523Z80.819° E
5 mins2025-05-10 00:11:38.523Z280.91° WNW2025-05-10 00:13:38.523Z209.931° SW43.092°2025-05-10 00:16:38.523Z120.848° SE
|